When you browse on this site, cookies collect data to enhance your experience and personalize the content and advertising you see.
Visit our Privacy Policy to learn more. By continuing to use the site, you agree to this use of cookies and data.
  • în România
  • Lista ţărilor
  • Pe 7 zile
  • Temperatura apei
  • Meteo pe hartă
  • Widget-uri
  • user-avatar
    Intrare

    Meteo pe oră la Maripasoula

    Astăzi, 7 Decembrie, Sâmbătă

    Timp Temperatura Precipitaţii Vânt Presiune Umiditate
    00:00 +22°C° 0 mm 0 m/s 746 mmHg 98%
    01:00 +21°C° 0 mm 0 m/s 745 mmHg 99%
    02:00 +21°C° 0 mm 0 m/s 745 mmHg 99%
    03:00 +21°C° 0 mm 0 m/s 745 mmHg 99%
    04:00 +21°C° 0 mm 0 m/s 745 mmHg 99%
    05:00 +20°C° 0 mm 0 m/s 745 mmHg 99%
    06:00 +22°C° 0 mm 0 m/s 746 mmHg 92%
    07:00 +26°C° 0 mm 1 m/s 746 mmHg 86%
    08:00 +28°C° 0 mm 1 m/s 747 mmHg 79%
    09:00 +30°C° 0 mm 1 m/s 747 mmHg 68%
    10:00 +32°C° 0 mm 1 m/s 747 mmHg 56%
    11:00 +35°C° 0 mm 2 m/s 746 mmHg 45%
    12:00 +36°C° 0 mm 2 m/s 745 mmHg 41%
    13:00 +37°C° 0 mm 2 m/s 744 mmHg 36%
    14:00 +38°C° 0 mm 2 m/s 743 mmHg 32%
    15:00 +35°C° 0 mm 1 m/s 743 mmHg 36%
    16:00 +34°C° 0 mm 1 m/s 743 mmHg 41%
    17:00 +32°C° 0 mm 1 m/s 743 mmHg 46%
    18:00 +31°C° 0 mm 1 m/s 744 mmHg 54%
    19:00 +29°C° 0 mm 1 m/s 744 mmHg 62%
    20:00 +27°C° 0 mm 1 m/s 745 mmHg 69%
    21:00 +26°C° 0 mm 1 m/s 745 mmHg 74%
    22:00 +25°C° 0 mm 1 m/s 745 mmHg 78%
    23:00 +24°C° 0 mm 1 m/s 745 mmHg 83%

    Mâine, 8 Decembrie, Duminică

    Timp Temperatura Precipitaţii Vânt Presiune Umiditate
    00:00 +24°C° 0 mm 1 m/s 745 mmHg 87%
    01:00 +21°C° 0 mm 0 m/s 744 mmHg 91%
    02:00 +21°C° 0 mm 0 m/s 744 mmHg 95%
    03:00 +20°C° 0 mm 0 m/s 744 mmHg 96%
    04:00 +20°C° 0 mm 0 m/s 744 mmHg 97%
    05:00 +20°C° 0 mm 0 m/s 744 mmHg 99%
    06:00 +22°C° 0 mm 0 m/s 745 mmHg 90%
    07:00 +26°C° 0 mm 1 m/s 746 mmHg 81%
    08:00 +28°C° 0 mm 1 m/s 747 mmHg 73%
    09:00 +31°C° 0 mm 1 m/s 746 mmHg 62%
    10:00 +34°C° 0 mm 2 m/s 746 mmHg 52%
    11:00 +36°C° 0 mm 2 m/s 746 mmHg 41%
    12:00 +37°C° 0 mm 2 m/s 745 mmHg 38%
    13:00 +38°C° 0 mm 2 m/s 744 mmHg 35%
    14:00 +38°C° 0 mm 2 m/s 743 mmHg 32%
    15:00 +37°C° 0 mm 2 m/s 743 mmHg 38%
    16:00 +35°C° 0 mm 2 m/s 743 mmHg 44%
    17:00 +32°C° 0 mm 2 m/s 743 mmHg 50%
    18:00 +30°C° 0.1 mm 1 m/s 743 mmHg 61%
    19:00 +28°C° 0.1 mm 1 m/s 744 mmHg 71%
    20:00 +26°C° 0.1 mm 1 m/s 745 mmHg 81%
    21:00 +26°C° 0 mm 1 m/s 745 mmHg 83%
    22:00 +26°C° 0 mm 1 m/s 745 mmHg 85%
    23:00 +26°C° 0 mm 1 m/s 745 mmHg 86%

    Poimâine, 9 Decembrie, Luni

    Timp Temperatura Precipitaţii Vânt Presiune Umiditate
    00:00 +25°C° 0 mm 1 m/s 745 mmHg 89%
    01:00 +25°C° 0 mm 1 m/s 745 mmHg 92%
    02:00 +24°C° 0 mm 1 m/s 744 mmHg 94%
    03:00 +24°C° 0 mm 1 m/s 744 mmHg 96%
    04:00 +23°C° 0 mm 1 m/s 745 mmHg 97%
    05:00 +21°C° 0 mm 0 m/s 745 mmHg 99%
    06:00 +25°C° 0 mm 1 m/s 745 mmHg 89%
    07:00 +27°C° 0 mm 1 m/s 746 mmHg 79%
    08:00 +29°C° 0 mm 2 m/s 746 mmHg 69%
    09:00 +31°C° 0 mm 2 m/s 746 mmHg 59%
    10:00 +34°C° 0 mm 2 m/s 746 mmHg 50%
    11:00 +36°C° 0 mm 2 m/s 746 mmHg 40%
    12:00 +37°C° 0 mm 2 m/s 745 mmHg 38%
    13:00 +37°C° 0 mm 2 m/s 744 mmHg 37%
    14:00 +38°C° 0 mm 2 m/s 743 mmHg 36%
    15:00 +36°C° 0 mm 2 m/s 743 mmHg 42%
    16:00 +34°C° 0 mm 2 m/s 743 mmHg 48%
    17:00 +31°C° 0 mm 2 m/s 743 mmHg 55%
    18:00 +30°C° 0 mm 2 m/s 744 mmHg 62%
    19:00 +28°C° 0 mm 1 m/s 745 mmHg 69%
    20:00 +27°C° 0 mm 1 m/s 745 mmHg 76%
    21:00 +26°C° 0 mm 1 m/s 746 mmHg 80%
    22:00 +26°C° 0 mm 1 m/s 746 mmHg 83%
    23:00 +25°C° 0 mm 1 m/s 746 mmHg 87%

    10 Decembrie, Marţi

    Timp Temperatura Precipitaţii Vânt Presiune Umiditate
    00:00 +24°C° 0 mm 1 m/s 745 mmHg 91%
    01:00 +24°C° 0 mm 1 m/s 745 mmHg 94%
    02:00 +21°C° 0 mm 0 m/s 744 mmHg 98%
    03:00 +21°C° 0 mm 0 m/s 745 mmHg 98%
    04:00 +21°C° 0 mm 0 m/s 745 mmHg 98%
    05:00 +21°C° 0 mm 0 m/s 745 mmHg 99%
    06:00 +25°C° 0 mm 1 m/s 746 mmHg 89%
    07:00 +27°C° 0 mm 1 m/s 746 mmHg 79%
    08:00 +29°C° 0 mm 2 m/s 747 mmHg 68%
    09:00 +31°C° 0 mm 2 m/s 747 mmHg 60%
    10:00 +34°C° 0 mm 2 m/s 746 mmHg 51%
    11:00 +36°C° 0 mm 2 m/s 746 mmHg 42%
    12:00 +36°C° 0 mm 2 m/s 745 mmHg 43%
    13:00 +35°C° 0 mm 2 m/s 745 mmHg 44%
    14:00 +35°C° 0 mm 2 m/s 744 mmHg 44%
    15:00 +34°C° 0 mm 2 m/s 744 mmHg 49%
    16:00 +33°C° 0 mm 3 m/s 744 mmHg 53%
    17:00 +30°C° 0 mm 3 m/s 744 mmHg 58%
    18:00 +29°C° 0 mm 2 m/s 744 mmHg 64%
    19:00 +28°C° 0 mm 2 m/s 745 mmHg 71%
    20:00 +26°C° 0 mm 2 m/s 746 mmHg 77%
    21:00 +25°C° 0 mm 1 m/s 746 mmHg 81%
    22:00 +25°C° 0 mm 1 m/s 746 mmHg 84%
    23:00 +24°C° 0 mm 1 m/s 746 mmHg 88%

    11 Decembrie, Miercuri

    Timp Temperatura Precipitaţii Vânt Presiune Umiditate
    00:00 +24°C° 0 mm 1 m/s 745 mmHg 91%
    01:00 +21°C° 0 mm 0 m/s 745 mmHg 93%
    02:00 +21°C° 0 mm 0 m/s 744 mmHg 96%
    03:00 +21°C° 0 mm 0 m/s 745 mmHg 97%
    04:00 +21°C° 0 mm 0 m/s 745 mmHg 98%
    05:00 +20°C° 0 mm 0 m/s 745 mmHg 99%
    06:00 +23°C° 0 mm 0 m/s 745 mmHg 88%
    07:00 +27°C° 0 mm 1 m/s 746 mmHg 77%
    08:00 +29°C° 0 mm 1 m/s 746 mmHg 67%
    09:00 +31°C° 0 mm 2 m/s 746 mmHg 59%
    10:00 +34°C° 0 mm 2 m/s 746 mmHg 51%
    11:00 +36°C° 0 mm 2 m/s 746 mmHg 42%
    12:00 +35°C° 0 mm 2 m/s 745 mmHg 43%
    13:00 +35°C° 0 mm 2 m/s 744 mmHg 43%
    14:00 +35°C° 0 mm 2 m/s 743 mmHg 44%
    15:00 +34°C° 0 mm 2 m/s 743 mmHg 50%
    16:00 +31°C° 0 mm 2 m/s 743 mmHg 55%
    17:00 +30°C° 0 mm 2 m/s 743 mmHg 61%
    18:00 +29°C° 0 mm 2 m/s 744 mmHg 66%
    19:00 +28°C° 0 mm 2 m/s 744 mmHg 71%
    20:00 +26°C° 0 mm 2 m/s 745 mmHg 76%
    21:00 +26°C° 0 mm 1 m/s 745 mmHg 79%
    22:00 +25°C° 0 mm 1 m/s 745 mmHg 82%
    23:00 +24°C° 0 mm 1 m/s 745 mmHg 85%

    12 Decembrie, Joi

    Timp Temperatura Precipitaţii Vânt Presiune Umiditate
    00:00 +24°C° 0 mm 1 m/s 745 mmHg 89%
    01:00 +21°C° 0 mm 0 m/s 744 mmHg 92%
    02:00 +21°C° 0 mm 0 m/s 744 mmHg 95%
    03:00 +21°C° 0 mm 0 m/s 744 mmHg 96%
    04:00 +21°C° 0 mm 0 m/s 744 mmHg 98%
    05:00 +20°C° 0 mm 0 m/s 744 mmHg 99%
    06:00 +25°C° 0 mm 1 m/s 745 mmHg 88%
    07:00 +27°C° 0 mm 1 m/s 745 mmHg 77%
    08:00 +29°C° 0 mm 2 m/s 746 mmHg 66%
    09:00 +31°C° 0 mm 2 m/s 746 mmHg 59%
    10:00 +34°C° 0 mm 2 m/s 746 mmHg 52%
    11:00 +36°C° 0 mm 2 m/s 745 mmHg 45%
    12:00 +36°C° 0.1 mm 2 m/s 745 mmHg 45%
    13:00 +36°C° 0.1 mm 2 m/s 744 mmHg 45%
    14:00 +36°C° 0.1 mm 2 m/s 743 mmHg 45%
    15:00 +34°C° 0 mm 2 m/s 743 mmHg 51%
    16:00 +32°C° 0 mm 2 m/s 743 mmHg 56%
    17:00 +30°C° 0 mm 3 m/s 743 mmHg 62%
    18:00 +29°C° 0.1 mm 2 m/s 743 mmHg 69%
    19:00 +28°C° 0.1 mm 2 m/s 744 mmHg 76%
    20:00 +26°C° 0.1 mm 2 m/s 745 mmHg 83%
    21:00 +26°C° 0 mm 1 m/s 745 mmHg 86%
    22:00 +25°C° 0 mm 1 m/s 745 mmHg 89%
    23:00 +25°C° 0 mm 1 m/s 745 mmHg 92%
    Arată mai mult